FW5619 Weather Reports


Display with metric or nautical units.
time (UTC)temp
F
wind
direction
speed
MPH
gust
MPH
rain 1hr
in
rain 24hr
in
rain mn
in
humidity
%
barometer
mb
20260503190510 56 293 12.0 28.0 0.00 0.00 0.00 39 1012.4
20260503190013 56 272 14.0 28.0 0.00 0.00 0.00 38 1012.5
20260503185513 55 281 9.0 23.0 0.00 0.00 0.00 39 1012.3
20260503185007 55 316 9.0 23.0 0.00 0.00 0.00 39 1012.5
20260503184511 55 309 14.0 24.0 0.00 0.00 0.00 40 1012.6
20260503184007 55 277 17.0 24.0 0.00 0.00 0.00 38 1012.6
20260503183506 56 296 9.0 27.0 0.00 0.00 0.00 38 1012.5
20260503183006 55 298 14.0 27.0 0.00 0.00 0.00 40 1012.4
20260503182507 54 301 13.0 24.0 0.00 0.00 0.00 39 1012.3
20260503182006 54 298 12.0 19.0 0.00 0.00 0.00 40 1012.4
20260503181506 54 308 12.0 19.0 0.00 0.00 0.00 39 1012.5
20260503181005 54 301 8.0 19.0 0.00 0.00 0.00 39 1012.4
20260503180505 55 332 11.0 24.0 0.00 0.00 0.00 39 1012.3
20260503180008 55 324 13.0 25.0 0.00 0.00 0.00 38 1012.2
20260503175504 55 261 14.0 25.0 0.00 0.00 0.00 39 1012.0
20260503175004 55 310 13.0 23.0 0.00 0.00 0.00 38 1012.2
20260503174503 55 311 9.0 20.0 0.00 0.00 0.00 38 1012.2
20260503174004 54 335 12.0 23.0 0.00 0.00 0.00 40 1012.2
20260503173504 54 317 13.0 23.0 0.00 0.00 0.00 40 1012.3
20260503173004 53 313 13.0 22.0 0.00 0.00 0.00 39 1012.4
20260503172504 54 338 11.0 24.0 0.00 0.00 0.00 38 1012.2
20260503172008 54 46 10.0 24.0 0.00 0.00 0.00 38 1012.3
20260503171504 54 315 11.0 25.0 0.00 0.00 0.00 40 1012.3
20260503171003 54 305 18.0 25.0 0.00 0.00 0.00 37 1012.4
20260503170502 54 295 11.0 21.0 0.00 0.00 0.00 38 1012.3
20260503150555 52 312 9.0 21.0 0.00 0.00 0.00 48 1013.0
20260503131043 48 293 14.0 21.0 0.00 0.00 0.00 56 1013.2
20260503130542 48 310 12.0 21.0 0.00 0.00 0.00 56 1013.1
20260503110533 46 344 5.0 12.0 0.00 0.00 0.00 61 1012.7
20260503081524 47 360 3.0 10.0 0.00 0.03 0.00 58 1011.4
20260503081010 47 360 4.0 10.0 0.00 0.03 0.00 57 1011.5
20260503080512 47 360 5.0 10.0 0.00 0.03 0.00 57 1011.4
20260503072505 48 331 5.0 11.0 0.00 0.03 0.00 56 1011.5
20260503072004 48 331 6.0 10.0 0.00 0.03 0.00 56 1011.5
20260503071504 48 331 6.0 10.0 0.00 0.03 0.00 56 1011.5
20260503071002 49 331 2.0 13.0 0.00 0.03 0.00 55 1011.4
20260503070502 49 331 5.0 13.0 0.00 0.03 0.00 55 1011.5
20260503060115 50 331 4.0 13.0 0.00 0.03 0.00 54 1011.8
20260503055050 50 331 6.0 11.0 0.00 0.03 0.00 53 1011.8
20260503054602 51 331 6.0 16.0 0.00 0.03 0.00 52 1012.0
20260503054052 51 321 5.0 15.0 0.00 0.03 0.00 52 1012.0
20260503053549 51 321 6.0 15.0 0.00 0.03 0.00 52 1011.7
20260503053048 51 318 5.0 16.0 0.00 0.03 0.00 53 1012.0
20260503052551 51 318 6.0 16.0 0.00 0.03 0.00 53 1012.0
20260503052046 51 293 5.0 11.0 0.00 0.03 0.00 54 1012.2
20260503051544 51 294 4.0 11.0 0.00 0.03 0.00 54 1012.3
20260503051046 51 293 2.0 13.0 0.00 0.03 0.00 54 1012.1
20260503050542 51 293 6.0 11.0 0.00 0.03 0.00 53 1012.2
20260503050041 51 293 4.0 11.0 0.00 0.03 0.00 54 1012.3
20260503045540 51 292 3.0 10.0 0.00 0.03 0.00 54 1012.5
20260503045039 52 292 4.0 9.0 0.00 0.03 0.00 54 1012.3
20260503044539 52 360 4.0 12.0 0.00 0.03 0.00 54 1012.4
20260503044038 52 291 7.0 13.0 0.00 0.03 0.00 54 1012.3
20260503043541 52 285 5.0 13.0 0.00 0.03 0.00 55 1012.3
20260503043037 52 360 6.0 11.0 0.00 0.03 0.00 56 1012.3
20260503042538 52 279 4.0 10.0 0.00 0.03 0.00 57 1012.2
20260503042035 52 360 2.0 8.0 0.00 0.03 0.00 57 1012.1
20260503041534 52 360 3.0 8.0 0.00 0.03 0.00 57 1012.4
20260503041036 52 360 2.0 8.0 0.00 0.03 0.00 56 1012.4
20260503040532 52 360 3.0 9.0 0.00 0.03 0.00 56 1012.4
20260503040037 52 360 4.0 9.0 0.00 0.03 0.03 55 1012.3
20260503035532 52 360 3.0 11.0 0.00 0.03 0.03 55 1012.4
20260503035034 52 360 3.0 10.0 0.00 0.03 0.03 56 1012.3
20260503034531 53 360 4.0 10.0 0.00 0.03 0.03 55 1012.4
20260503034031 53 360 4.0 10.0 0.00 0.03 0.03 55 1012.1
20260503033530 53 360 5.0 10.0 0.00 0.03 0.03 56 1011.9
20260503033032 53 360 3.0 14.0 0.00 0.03 0.03 56 1012.2
20260503032529 53 360 5.0 14.0 0.00 0.03 0.03 57 1012.1
20260503032030 53 360 4.0 11.0 0.00 0.03 0.03 57 1012.1
20260503031530 53 360 2.0 10.0 0.00 0.03 0.03 57 1012.0
20260503031030 53 360 5.0 10.0 0.00 0.03 0.03 57 1012.0
20260503030532 53 360 6.0 12.0 0.00 0.03 0.03 57 1012.1
20260503030029 53 360 3.0 12.0 0.00 0.03 0.03 56 1012.0
20260503025529 53 360 2.0 12.0 0.00 0.03 0.03 55 1012.1
20260503025029 53 360 4.0 12.0 0.00 0.03 0.03 55 1012.0
20260503024528 53 360 3.0 12.0 0.00 0.03 0.03 55 1012.1
20260503024028 53 360 4.0 12.0 0.00 0.03 0.03 57 1012.0
20260503023527 52 360 4.0 10.0 0.00 0.03 0.03 60 1012.3
20260503023026 52 360 2.0 6.0 0.00 0.03 0.03 67 1012.3
20260503022527 52 360 2.0 5.0 0.00 0.03 0.03 73 1012.3
20260503022027 51 360 2.0 5.0 0.00 0.03 0.03 80 1012.5
20260503021525 51 217 1.0 3.0 0.00 0.03 0.03 85 1012.6
20260503021026 50 217 0.0 2.0 0.00 0.03 0.03 87 1012.6
20260503020525 50 217 0.0 2.0 0.00 0.03 0.03 88 1012.6
20260503020025 50 217 0.0 2.0 0.00 0.03 0.03 89 1012.6
20260503015524 50 217 0.0 1.0 0.00 0.03 0.03 89 1012.8
20260503015027 50 217 0.0 0.0 0.00 0.03 0.03 88 1012.8
20260503014526 50 217 0.0 1.0 0.00 0.03 0.03 88 1012.7
20260503014023 50 217 0.0 3.0 0.00 0.03 0.03 88 1012.6
20260503013523 50 217 0.0 3.0 0.00 0.03 0.03 88 1012.7
20260503013023 50 217 0.0 2.0 0.00 0.03 0.03 88 1012.6
20260503012523 50 217 1.0 2.0 0.00 0.03 0.03 88 1012.5
20260503012022 51 360 0.0 2.0 0.00 0.03 0.03 88 1012.5
20260503011524 51 360 1.0 4.0 0.00 0.03 0.03 87 1012.6
20260503011023 51 360 2.0 4.0 0.00 0.03 0.03 87 1012.7
20260503010526 51 360 0.0 2.0 0.00 0.03 0.03 87 1012.4
20260503010028 51 360 0.0 2.0 0.00 0.03 0.03 87 1012.1
20260503005523 52 360 1.0 3.0 0.00 0.03 0.03 87 1012.0
20260503005026 52 360 0.0 3.0 0.00 0.03 0.03 86 1012.0
20260503004521 52 216 0.0 3.0 0.00 0.03 0.03 86 1012.0
20260503004021 52 360 1.0 3.0 0.00 0.03 0.03 86 1011.8
20260503003522 52 360 0.0 2.0 0.00 0.03 0.03 86 1011.8
20260503003026 52 360 0.0 1.0 0.00 0.03 0.03 85 1011.9
20260503002521 52 360 0.0 4.0 0.00 0.03 0.03 85 1011.7
20260503002022 52 360 1.0 5.0 0.00 0.03 0.03 85 1011.8
20260503001521 52 360 3.0 5.0 0.00 0.03 0.03 84 1011.8
20260503001020 52 360 2.0 5.0 0.00 0.03 0.03 84 1011.8
20260503000520 52 360 2.0 4.0 0.00 0.03 0.03 84 1011.8
20260503000020 53 360 0.0 4.0 0.00 0.03 0.03 83 1011.8
20260502235521 53 360 2.0 5.0 0.00 0.03 0.03 83 1011.8
20260502235020 53 360 1.0 5.0 0.00 0.03 0.03 82 1011.8
20260502234525 53 217 2.0 5.0 0.00 0.03 0.03 82 1011.7
20260502234024 54 217 2.0 4.0 0.00 0.03 0.03 80 1011.7
20260502233519 54 217 1.0 5.0 0.00 0.03 0.03 79 1011.7
20260502233020 54 217 2.0 6.0 0.00 0.03 0.03 78 1011.5
20260502232519 54 217 3.0 7.0 0.00 0.03 0.03 78 1011.5
20260502232019 55 217 3.0 7.0 0.00 0.03 0.03 76 1011.4
20260502231523 55 217 3.0 7.0 0.00 0.03 0.03 75 1011.4
20260502231019 56 217 3.0 8.0 0.00 0.03 0.03 74 1011.4
20260502230519 56 217 3.0 8.0 0.00 0.03 0.03 74 1011.5
20260502230019 56 217 4.0 8.0 0.00 0.03 0.03 73 1011.5
20260502225521 56 217 4.0 10.0 0.00 0.03 0.03 72 1011.4
20260502225018 56 217 6.0 10.0 0.00 0.03 0.03 71 1011.3
20260502224517 56 229 5.0 10.0 0.00 0.03 0.03 71 1011.3
20260502224018 57 229 5.0 9.0 0.00 0.03 0.03 71 1011.2
20260502223618 57 229 4.0 9.0 0.00 0.03 0.03 71 1011.2
20260502223018 57 229 5.0 10.0 0.00 0.03 0.03 70 1011.3
20260502222518 57 229 6.0 10.0 0.00 0.03 0.03 68 1011.4
20260502222017 57 232 6.0 11.0 0.00 0.03 0.03 68 1011.3
20260502221519 57 271 5.0 9.0 0.00 0.03 0.03 67 1011.3
20260502221016 58 276 4.0 8.0 0.00 0.03 0.03 66 1011.3
20260502220516 58 276 3.0 8.0 0.00 0.03 0.03 65 1011.2
20260502220016 58 276 4.0 9.0 0.00 0.03 0.03 63 1011.2
20260502215517 58 276 2.0 7.0 0.00 0.03 0.03 63 1011.4
20260502215016 58 276 1.0 3.0 0.00 0.03 0.03 61 1011.3
20260502214532 58 276 1.0 6.0 0.00 0.03 0.03 60 1011.3
20260502214019 58 276 1.0 6.0 0.00 0.03 0.03 60 1011.2
20260502213516 58 276 2.0 7.0 0.00 0.03 0.03 61 1011.2
20260502213016 58 276 4.0 11.0 0.00 0.03 0.03 63 1011.1
20260502212515 58 276 5.0 11.0 0.00 0.03 0.03 61 1011.0
20260502212016 59 276 3.0 6.0 0.00 0.03 0.03 56 1011.0
20260502211518 60 276 1.0 7.0 0.00 0.03 0.03 51 1011.0
20260502211014 60 276 4.0 7.0 0.00 0.03 0.03 50 1010.9
20260502210513 60 276 1.0 7.0 0.00 0.03 0.03 49 1010.9
20260502210023 61 276 0.0 7.0 0.00 0.03 0.03 48 1011.0
20260502205516 60 276 4.0 7.0 0.00 0.03 0.03 48 1011.0
20260502205013 60 276 1.0 4.0 0.00 0.03 0.03 49 1011.0
20260502204517 61 276 1.0 8.0 0.00 0.03 0.03 49 1010.9
20260502204014 61 276 2.0 6.0 0.00 0.03 0.03 49 1011.0
20260502203512 62 276 0.0 8.0 0.00 0.03 0.03 49 1011.0
20260502203014 61 276 3.0 9.0 0.00 0.03 0.03 50 1011.0
20260502202511 60 276 5.0 11.0 0.00 0.03 0.03 51 1011.0
20260502202011 61 269 5.0 11.0 0.00 0.03 0.03 50 1011.1
20260502201511 61 269 4.0 11.0 0.00 0.03 0.03 49 1011.2
20260502201015 61 269 4.0 11.0 0.00 0.03 0.03 48 1011.2
20260502200509 61 269 4.0 11.0 0.00 0.03 0.03 51 1011.3
20260502200009 61 269 3.0 11.0 0.00 0.03 0.03 50 1011.4
20260502195509 61 265 5.0 11.0 0.00 0.03 0.03 51 1011.5
20260502195007 61 248 5.0 11.0 0.00 0.03 0.03 50 1011.6
20260502194505 62 244 4.0 10.0 0.00 0.03 0.03 51 1011.7
20260502194004 61 236 2.0 10.0 0.00 0.03 0.03 51 1011.6
20260502193504 62 236 3.0 10.0 0.00 0.03 0.03 53 1011.7
20260502193003 62 225 1.0 8.0 0.00 0.03 0.03 55 1011.9
20260502192503 62 225 4.0 8.0 0.00 0.03 0.03 55 1011.9
20260502192001 61 217 2.0 7.0 0.00 0.03 0.03 56 1012.0
20260502191600 60 217 3.0 7.0 0.00 0.03 0.03 57 1012.1
20260502191059 60 216 3.0 9.0 0.00 0.03 0.03 59 1012.1